• In Slovakia
  • List of Countries
  • For 7 days
  • Water Temperature
  • Satellite Maps
  • Weather Map
  • Weather Widgets
  • user-avatar
    Login

    Hourly Weather Smokovec

    Today, 21 October, Sunday

    Time Temperature Precipitation Wind Pressure Humidity
    00:00 +5°C° 0.1 mm 2 mps 690 mmHg 86%
    01:00 +4°C° 0.1 mm 2 mps 690 mmHg 85%
    02:00 +3°C° 0.1 mm 2 mps 690 mmHg 86%
    03:00 +3°C° 0.1 mm 2 mps 690 mmHg 86%
    04:00 +3°C° 0.1 mm 2 mps 689 mmHg 86%
    05:00 +3°C° 0.2 mm 2 mps 690 mmHg 86%
    06:00 +3°C° 0.2 mm 2 mps 690 mmHg 85%
    07:00 +2°C° 0 mm 3 mps 690 mmHg 84%
    08:00 +3°C° 0.3 mm 3 mps 691 mmHg 83%
    09:00 +3°C° 0.3 mm 3 mps 691 mmHg 83%
    10:00 +4°C° 0.3 mm 3 mps 691 mmHg 82%
    11:00 +4°C° 0 mm 3 mps 691 mmHg 81%
    12:00 +5°C° 0 mm 3 mps 691 mmHg 80%
    13:00 +7°C° 0 mm 3 mps 692 mmHg 79%
    14:00 +5°C° 0 mm 3 mps 692 mmHg 80%
    15:00 +5°C° 0 mm 3 mps 692 mmHg 81%
    16:00 +6°C° 0 mm 2 mps 692 mmHg 81%
    17:00 +5°C° 0 mm 2 mps 692 mmHg 83%
    18:00 +5°C° 0 mm 2 mps 692 mmHg 85%
    19:00 +4°C° 0 mm 2 mps 692 mmHg 87%
    20:00 +4°C° 0 mm 2 mps 692 mmHg 88%
    21:00 +3°C° 0 mm 2 mps 692 mmHg 89%
    22:00 +4°C° 0 mm 1 mps 692 mmHg 90%
    23:00 +4°C° 0 mm 1 mps 692 mmHg 89%

    Tomorrow, 22 October, Monday

    Time Temperature Precipitation Wind Pressure Humidity
    00:00 +3°C° 0 mm 1 mps 692 mmHg 89%
    01:00 +3°C° 0 mm 1 mps 692 mmHg 88%
    02:00 +3°C° 0 mm 1 mps 692 mmHg 86%
    03:00 +3°C° 0 mm 1 mps 691 mmHg 85%
    04:00 +3°C° 0 mm 1 mps 691 mmHg 84%
    05:00 +3°C° 0 mm 1 mps 691 mmHg 82%
    06:00 +4°C° 0 mm 1 mps 691 mmHg 80%
    07:00 +4°C° 0 mm 1 mps 692 mmHg 78%
    08:00 +7°C° 0 mm 1 mps 692 mmHg 70%
    09:00 +8°C° 0 mm 0 mps 693 mmHg 62%
    10:00 +10°C° 0 mm 0 mps 693 mmHg 54%
    11:00 +11°C° 0 mm 0 mps 693 mmHg 53%
    12:00 +13°C° 0 mm 1 mps 692 mmHg 52%
    13:00 +13°C° 0 mm 1 mps 692 mmHg 51%
    14:00 +12°C° 0 mm 1 mps 692 mmHg 56%
    15:00 +11°C° 0 mm 1 mps 691 mmHg 62%
    16:00 +10°C° 0 mm 1 mps 691 mmHg 68%
    17:00 +9°C° 0 mm 1 mps 691 mmHg 73%
    18:00 +7°C° 0 mm 1 mps 690 mmHg 79%
    19:00 +6°C° 0 mm 1 mps 690 mmHg 84%
    20:00 +5°C° 0 mm 1 mps 690 mmHg 85%
    21:00 +5°C° 0 mm 1 mps 690 mmHg 86%
    22:00 +5°C° 0 mm 1 mps 690 mmHg 87%
    23:00 +5°C° 0.1 mm 1 mps 690 mmHg 85%

    Day after tomorrow, 23 October, Tuesday

    Time Temperature Precipitation Wind Pressure Humidity
    00:00 +5°C° 0.1 mm 1 mps 690 mmHg 83%
    01:00 +6°C° 0.1 mm 1 mps 690 mmHg 81%
    02:00 +6°C° 0.1 mm 1 mps 690 mmHg 82%
    03:00 +6°C° 0.1 mm 1 mps 690 mmHg 84%
    04:00 +6°C° 0.1 mm 1 mps 690 mmHg 85%
    05:00 +5°C° 0 mm 1 mps 690 mmHg 86%
    06:00 +5°C° 0 mm 1 mps 690 mmHg 88%
    07:00 +5°C° 0 mm 1 mps 690 mmHg 89%
    08:00 +6°C° 0 mm 1 mps 690 mmHg 82%
    09:00 +7°C° 0 mm 1 mps 690 mmHg 75%
    10:00 +6°C° 0 mm 2 mps 690 mmHg 69%
    11:00 +7°C° 0 mm 2 mps 689 mmHg 65%
    12:00 +7°C° 0 mm 2 mps 688 mmHg 61%
    13:00 +7°C° 0 mm 3 mps 688 mmHg 57%
    14:00 +5°C° 0.2 mm 3 mps 687 mmHg 62%
    15:00 +5°C° 0.2 mm 3 mps 686 mmHg 67%
    16:00 +4°C° 0.2 mm 3 mps 685 mmHg 72%
    17:00 +3°C° 0.1 mm 3 mps 684 mmHg 74%
    18:00 +3°C° 0.1 mm 3 mps 684 mmHg 77%
    19:00 +1°C° 0.1 mm 4 mps 683 mmHg 80%
    20:00 +1°C° 0.4 mm 4 mps 682 mmHg 81%
    21:00 +3°C° 0.4 mm 4 mps 682 mmHg 83%
    22:00 +3°C° 0.4 mm 4 mps 681 mmHg 84%
    23:00 +2°C° 0.6 mm 5 mps 680 mmHg 84%

    24 October, Wednesday

    Time Temperature Precipitation Wind Pressure Humidity
    00:00 +3°C° 0.6 mm 5 mps 679 mmHg 84%
    01:00 +3°C° 0.6 mm 6 mps 678 mmHg 85%
    02:00 +4°C° 0.9 mm 6 mps 678 mmHg 85%
    03:00 +4°C° 0.9 mm 7 mps 677 mmHg 85%
    04:00 +5°C° 0.9 mm 7 mps 676 mmHg 85%
    05:00 +4°C° 1.8 mm 7 mps 676 mmHg 84%
    06:00 +3°C° 1.8 mm 7 mps 677 mmHg 83%
    07:00 +2°C° 1.8 mm 7 mps 677 mmHg 82%
    08:00 +2°C° 0.3 mm 7 mps 677 mmHg 77%
    09:00 0°C° 0.3 mm 7 mps 678 mmHg 72%
    10:00 -1°C° 0.3 mm 8 mps 678 mmHg 67%
    11:00 -1°C° 0.1 mm 8 mps 679 mmHg 64%
    12:00 0°C° 0.1 mm 8 mps 679 mmHg 61%
    13:00 0°C° 0.1 mm 7 mps 680 mmHg 59%
    14:00 -1°C° 0.1 mm 7 mps 680 mmHg 60%
    15:00 -1°C° 0.1 mm 6 mps 680 mmHg 62%
    16:00 -1°C° 0.1 mm 6 mps 680 mmHg 64%
    17:00 -2°C° 0.1 mm 6 mps 681 mmHg 65%
    18:00 -2°C° 0.1 mm 6 mps 681 mmHg 67%
    19:00 -1°C° 0.1 mm 5 mps 682 mmHg 68%
    20:00 -2°C° 0 mm 5 mps 682 mmHg 69%
    21:00 -2°C° 0 mm 5 mps 682 mmHg 70%
    22:00 -2°C° 0 mm 5 mps 683 mmHg 72%
    23:00 -3°C° 0 mm 4 mps 683 mmHg 74%

    25 October, Thursday

    Time Temperature Precipitation Wind Pressure Humidity
    00:00 -3°C° 0 mm 4 mps 683 mmHg 76%
    01:00 -2°C° 0 mm 3 mps 683 mmHg 78%
    02:00 -2°C° 0 mm 3 mps 683 mmHg 80%
    03:00 -4°C° 0 mm 3 mps 683 mmHg 82%
    04:00 -4°C° 0 mm 3 mps 683 mmHg 84%
    05:00 -3°C° 0 mm 2 mps 683 mmHg 85%
    06:00 -3°C° 0 mm 2 mps 683 mmHg 85%
    07:00 -2°C° 0 mm 2 mps 683 mmHg 85%
    08:00 -1°C° 0.2 mm 2 mps 683 mmHg 83%
    09:00 +1°C° 0.2 mm 2 mps 683 mmHg 81%
    10:00 +3°C° 0.2 mm 2 mps 683 mmHg 80%
    11:00 +3°C° 0.1 mm 3 mps 683 mmHg 81%
    12:00 +4°C° 0.1 mm 3 mps 682 mmHg 82%
    13:00 +5°C° 0.1 mm 4 mps 682 mmHg 83%
    14:00 +5°C° 0.1 mm 4 mps 682 mmHg 84%
    15:00 +5°C° 0.1 mm 3 mps 682 mmHg 86%
    16:00 +5°C° 0.1 mm 3 mps 682 mmHg 87%
    17:00 +5°C° 0.1 mm 3 mps 682 mmHg 89%
    18:00 +4°C° 0.1 mm 3 mps 682 mmHg 91%
    19:00 +4°C° 0.1 mm 3 mps 683 mmHg 92%
    20:00 +4°C° 0.1 mm 3 mps 683 mmHg 92%
    21:00 +4°C° 0.1 mm 3 mps 683 mmHg 92%
    22:00 +5°C° 0.1 mm 2 mps 683 mmHg 93%
    23:00 +4°C° 0 mm 2 mps 683 mmHg 93%

    26 October, Friday

    Time Temperature Precipitation Wind Pressure Humidity
    00:00 +4°C° 0 mm 2 mps 683 mmHg 94%
    01:00 +4°C° 0 mm 2 mps 683 mmHg 94%
    02:00 +3°C° 0 mm 2 mps 683 mmHg 94%
    03:00 +4°C° 0 mm 1 mps 683 mmHg 94%
    04:00 +4°C° 0 mm 1 mps 683 mmHg 94%
    05:00 +4°C° 0 mm 1 mps 683 mmHg 94%
    06:00 +4°C° 0 mm 1 mps 683 mmHg 94%
    07:00 +4°C° 0 mm 1 mps 683 mmHg 94%
    08:00 +5°C° 0 mm 1 mps 684 mmHg 87%
    09:00 +7°C° 0 mm 1 mps 684 mmHg 79%
    10:00 +9°C° 0 mm 1 mps 685 mmHg 72%
    11:00 +9°C° 0 mm 2 mps 684 mmHg 69%
    12:00 +9°C° 0 mm 2 mps 684 mmHg 66%
    13:00 +10°C° 0 mm 2 mps 684 mmHg 63%
    14:00 +9°C° 0 mm 2 mps 683 mmHg 68%
    15:00 +8°C° 0 mm 2 mps 683 mmHg 74%
    16:00 +7°C° 0 mm 2 mps 682 mmHg 79%
    17:00 +6°C° 0 mm 2 mps 682 mmHg 82%
    18:00 +6°C° 0 mm 2 mps 681 mmHg 85%
    19:00 +5°C° 0 mm 2 mps 681 mmHg 88%
    20:00 +5°C° 0 mm 2 mps 681 mmHg 89%
    21:00 +6°C° 0 mm 2 mps 681 mmHg 90%
    22:00 +6°C° 0 mm 2 mps 680 mmHg 91%
    23:00 +7°C° 0 mm 2 mps 680 mmHg 91%
    Show more